Year,Month,Day,Hour,Minute,Value (Times are PST for windspeed in km/hr)
2013,11,20,00,00,1.60
2013,11,20,00,01,1.10
2013,11,20,00,02,0.90
2013,11,20,00,03,4.30
2013,11,20,00,04,1.70
2013,11,20,00,05,2.90
2013,11,20,00,06,2.60
2013,11,20,00,07,2.10
2013,11,20,00,08,3.00
2013,11,20,00,09,3.20
2013,11,20,00,10,2.80
2013,11,20,00,11,1.30
2013,11,20,00,12,0.80
2013,11,20,00,13,1.20
2013,11,20,00,14,0.60
2013,11,20,00,15,0.10
2013,11,20,00,16,0.60
2013,11,20,00,17,0.60
2013,11,20,00,18,1.40
2013,11,20,00,19,1.20
2013,11,20,00,20,0.50
2013,11,20,00,21,0.60
2013,11,20,00,22,2.00
2013,11,20,00,23,3.20
2013,11,20,00,24,0.60
2013,11,20,00,25,0.50
2013,11,20,00,26,0.20
2013,11,20,00,27,0.80
2013,11,20,00,28,0.60
2013,11,20,00,29,0.00
2013,11,20,00,30,0.70
2013,11,20,00,31,2.00
2013,11,20,00,32,2.20
2013,11,20,00,33,1.60
2013,11,20,00,34,0.60
2013,11,20,00,35,2.70
2013,11,20,00,36,1.70
2013,11,20,00,37,1.80
2013,11,20,00,38,3.00
2013,11,20,00,39,2.80
2013,11,20,00,40,1.70
2013,11,20,00,41,0.80
2013,11,20,00,42,2.50
2013,11,20,00,43,2.80
2013,11,20,00,44,3.10
2013,11,20,00,45,2.10
2013,11,20,00,46,2.30
2013,11,20,00,47,4.40
2013,11,20,00,48,1.90
2013,11,20,00,49,2.30
2013,11,20,00,50,2.40
2013,11,20,00,51,1.60
2013,11,20,00,52,3.30
2013,11,20,00,53,2.90
2013,11,20,00,54,1.40
2013,11,20,00,55,4.80
2013,11,20,00,56,2.10
2013,11,20,00,57,1.30
2013,11,20,00,58,0.70
2013,11,20,00,59,1.80
2013,11,20,01,00,0.90
2013,11,20,01,01,1.90
2013,11,20,01,02,2.10
2013,11,20,01,03,2.00
2013,11,20,01,04,5.80
2013,11,20,01,05,4.80
2013,11,20,01,06,3.70
2013,11,20,01,07,1.40
2013,11,20,01,08,1.90
2013,11,20,01,09,2.20
2013,11,20,01,10,3.30
2013,11,20,01,11,3.30
2013,11,20,01,12,2.70
2013,11,20,01,13,3.20
2013,11,20,01,14,3.40
2013,11,20,01,15,3.40
2013,11,20,01,16,3.90
2013,11,20,01,17,4.00
2013,11,20,01,18,3.50
2013,11,20,01,19,4.10
2013,11,20,01,20,2.30
2013,11,20,01,21,4.60
2013,11,20,01,22,3.40
2013,11,20,01,23,2.10
2013,11,20,01,24,4.80
2013,11,20,01,25,2.50
2013,11,20,01,26,2.70
2013,11,20,01,27,3.60
2013,11,20,01,28,2.90
2013,11,20,01,29,3.20
2013,11,20,01,30,3.70
2013,11,20,01,31,5.80
2013,11,20,01,32,5.70
2013,11,20,01,33,6.40
2013,11,20,01,34,4.90
2013,11,20,01,35,2.10
2013,11,20,01,36,3.80
2013,11,20,01,37,2.00
2013,11,20,01,38,4.20
2013,11,20,01,39,4.30
2013,11,20,01,40,2.90
2013,11,20,01,41,2.20
2013,11,20,01,42,3.00
2013,11,20,01,43,4.10
2013,11,20,01,44,5.80
2013,11,20,01,45,4.30
2013,11,20,01,46,2.40
2013,11,20,01,47,3.50
2013,11,20,01,48,3.90
2013,11,20,01,49,6.00
2013,11,20,01,50,4.90
2013,11,20,01,51,2.90
2013,11,20,01,52,3.00
2013,11,20,01,53,2.60
2013,11,20,01,54,4.30
2013,11,20,01,55,4.90
2013,11,20,01,56,4.40
2013,11,20,01,57,5.50
2013,11,20,01,58,3.80
2013,11,20,01,59,5.50
2013,11,20,02,00,4.70
2013,11,20,02,01,2.10
2013,11,20,02,02,4.80
2013,11,20,02,03,4.50
2013,11,20,02,04,4.00
2013,11,20,02,05,4.10
2013,11,20,02,06,3.00
2013,11,20,02,07,4.30
2013,11,20,02,08,2.50
2013,11,20,02,09,2.70
2013,11,20,02,10,2.80
2013,11,20,02,11,3.70
2013,11,20,02,12,3.30
2013,11,20,02,13,2.00
2013,11,20,02,14,2.60
2013,11,20,02,15,3.00
2013,11,20,02,16,3.90
2013,11,20,02,17,3.00
2013,11,20,02,18,2.80
2013,11,20,02,19,3.30
2013,11,20,02,20,3.50
2013,11,20,02,21,2.80
2013,11,20,02,22,4.00
2013,11,20,02,23,3.30
2013,11,20,02,24,3.30
2013,11,20,02,25,6.30
2013,11,20,02,26,4.10
2013,11,20,02,27,4.30
2013,11,20,02,28,3.00
2013,11,20,02,29,3.60
2013,11,20,02,30,4.20
2013,11,20,02,31,4.30
2013,11,20,02,32,5.30
2013,11,20,02,33,3.80
2013,11,20,02,34,4.00
2013,11,20,02,35,3.00
2013,11,20,02,36,4.40
2013,11,20,02,37,3.90
2013,11,20,02,38,2.80
2013,11,20,02,39,3.80
2013,11,20,02,40,5.40
2013,11,20,02,41,4.40
2013,11,20,02,42,3.50
2013,11,20,02,43,5.20
2013,11,20,02,44,6.40
2013,11,20,02,45,7.30
2013,11,20,02,46,4.20
2013,11,20,02,47,5.30
2013,11,20,02,48,4.40
2013,11,20,02,49,7.60
2013,11,20,02,50,7.40
2013,11,20,02,51,9.40
2013,11,20,02,52,5.00
2013,11,20,02,53,6.60
2013,11,20,02,54,4.90
2013,11,20,02,55,8.20
2013,11,20,02,56,6.50
2013,11,20,02,57,9.00
2013,11,20,02,58,10.10
2013,11,20,02,59,9.80
2013,11,20,03,00,7.90
2013,11,20,03,01,5.30
2013,11,20,03,02,6.50
2013,11,20,03,03,9.10
2013,11,20,11,04,4.60
2013,11,20,11,05,7.10
2013,11,20,11,06,6.90
2013,11,20,11,07,12.00
2013,11,20,11,08,7.90
2013,11,20,11,09,9.50
2013,11,20,11,10,8.10
2013,11,20,11,11,8.70
2013,11,20,11,12,6.80
2013,11,20,11,13,9.80
2013,11,20,11,14,9.80
2013,11,20,11,15,10.20
2013,11,20,11,16,7.60
2013,11,20,11,17,6.20
2013,11,20,11,18,7.10
2013,11,20,11,19,6.70
2013,11,20,11,20,5.60
2013,11,20,11,21,3.40
2013,11,20,11,22,7.10
2013,11,20,11,23,5.30
2013,11,20,11,24,2.60
2013,11,20,11,25,4.80
2013,11,20,11,26,5.70
2013,11,20,11,27,4.20
2013,11,20,11,28,6.50
2013,11,20,11,29,8.60
2013,11,20,11,30,3.70
2013,11,20,11,31,4.70
2013,11,20,11,32,6.90
2013,11,20,11,33,10.10
2013,11,20,11,34,8.00
2013,11,20,11,35,4.50
2013,11,20,11,36,3.00
2013,11,20,11,37,3.50
2013,11,20,11,38,5.50
2013,11,20,11,39,7.20
2013,11,20,11,40,5.30
2013,11,20,11,41,6.90
2013,11,20,11,42,4.40
2013,11,20,11,43,4.40
2013,11,20,11,44,4.00
2013,11,20,11,45,4.40
2013,11,20,11,46,5.10
2013,11,20,11,47,4.00
2013,11,20,11,48,2.80
2013,11,20,11,49,2.00
2013,11,20,11,50,1.60
2013,11,20,11,51,2.70
2013,11,20,11,52,5.60
2013,11,20,11,53,5.20
2013,11,20,11,54,3.60
2013,11,20,11,55,5.00
2013,11,20,11,56,5.60
2013,11,20,11,57,6.30
2013,11,20,11,58,3.00
2013,11,20,11,59,5.00
2013,11,20,12,00,4.70
2013,11,20,12,01,3.30
2013,11,20,12,02,5.60
2013,11,20,12,03,3.70
2013,11,20,12,04,3.60
2013,11,20,12,05,2.10
2013,11,20,12,06,2.80
2013,11,20,12,07,3.60
2013,11,20,12,08,4.30
2013,11,20,12,09,5.10
2013,11,20,12,10,4.50
2013,11,20,12,11,3.70
2013,11,20,12,12,5.40
2013,11,20,12,13,3.30
2013,11,20,12,14,4.50
2013,11,20,12,15,4.90
2013,11,20,12,16,4.30
2013,11,20,12,17,2.30
2013,11,20,12,18,3.90
2013,11,20,12,19,6.40
2013,11,20,12,20,4.70
2013,11,20,12,21,4.50
2013,11,20,12,22,1.20
2013,11,20,12,23,2.30
2013,11,20,12,24,4.40
2013,11,20,12,25,4.80
2013,11,20,12,26,6.10
2013,11,20,12,27,5.30
2013,11,20,12,28,6.70
2013,11,20,12,29,7.70
2013,11,20,12,30,9.30
2013,11,20,12,31,4.70
2013,11,20,12,32,4.00
2013,11,20,12,33,5.40
2013,11,20,12,34,6.50
2013,11,20,12,35,7.40
2013,11,20,12,36,6.90
2013,11,20,12,37,5.00
2013,11,20,12,38,5.00
2013,11,20,12,39,7.80
2013,11,20,12,40,7.70
2013,11,20,12,41,6.20
2013,11,20,12,42,5.60
2013,11,20,12,43,6.60
2013,11,20,12,44,5.40
2013,11,20,12,45,3.40
2013,11,20,12,46,5.90
2013,11,20,12,47,3.40
2013,11,20,12,48,4.20
2013,11,20,12,49,6.40
2013,11,20,12,50,5.80
2013,11,20,12,51,5.60
2013,11,20,12,52,3.50
2013,11,20,12,53,3.80
2013,11,20,12,54,4.10
2013,11,20,12,55,1.70
2013,11,20,12,56,2.30
2013,11,20,12,57,4.40
2013,11,20,12,58,8.60
2013,11,20,12,59,8.20
2013,11,20,13,00,7.00
2013,11,20,13,01,6.80
2013,11,20,13,02,6.60
2013,11,20,13,03,10.40
2013,11,20,13,04,7.10
2013,11,20,13,05,5.70
2013,11,20,13,06,6.70
2013,11,20,13,07,5.60
2013,11,20,13,08,4.40
2013,11,20,13,09,3.10
2013,11,20,13,10,5.80
2013,11,20,13,11,5.80
2013,11,20,13,12,2.60
2013,11,20,13,13,4.80
2013,11,20,13,14,1.90
2013,11,20,13,15,4.40
2013,11,20,13,16,5.00
2013,11,20,13,17,5.50
2013,11,20,13,18,4.90
2013,11,20,13,19,4.70
2013,11,20,13,20,5.30
2013,11,20,13,21,6.30
2013,11,20,13,22,4.40
2013,11,20,13,23,5.20
2013,11,20,13,24,5.70
2013,11,20,13,25,6.10
2013,11,20,13,26,4.40
2013,11,20,13,27,7.70
2013,11,20,13,28,6.90
2013,11,20,13,29,5.70
2013,11,20,13,30,4.20
2013,11,20,13,31,2.80
2013,11,20,13,32,5.20
2013,11,20,13,33,6.00
2013,11,20,13,34,3.40
2013,11,20,13,35,5.00
2013,11,20,13,36,5.30
2013,11,20,13,37,6.80
2013,11,20,13,38,6.10
2013,11,20,13,39,5.40
2013,11,20,13,40,4.10
2013,11,20,13,41,4.50
2013,11,20,13,42,3.50
2013,11,20,13,43,4.90
2013,11,20,13,44,3.40
2013,11,20,13,45,3.90
2013,11,20,13,46,3.00
2013,11,20,13,47,4.00
2013,11,20,13,48,3.40
2013,11,20,13,49,2.90
2013,11,20,13,50,4.20
2013,11,20,13,51,3.40
2013,11,20,13,52,3.40
2013,11,20,13,53,2.30
2013,11,20,13,54,2.40
2013,11,20,13,55,3.00
2013,11,20,13,56,2.90
2013,11,20,13,57,3.20
2013,11,20,13,58,2.00
2013,11,20,13,59,2.90
2013,11,20,14,00,4.20
2013,11,20,14,01,2.40
2013,11,20,14,02,0.40
2013,11,20,14,03,1.20
2013,11,20,14,04,1.10
2013,11,20,14,05,3.40
2013,11,20,14,06,2.50
2013,11,20,14,07,1.80
2013,11,20,14,08,2.30
2013,11,20,14,09,3.30
2013,11,20,14,10,2.90
2013,11,20,14,11,3.20
2013,11,20,14,12,2.80
2013,11,20,14,13,2.70
2013,11,20,14,14,3.40
2013,11,20,14,15,2.50
2013,11,20,14,16,3.00
2013,11,20,14,17,2.70
2013,11,20,14,18,2.10
2013,11,20,14,19,3.30
2013,11,20,14,20,1.40
2013,11,20,14,21,0.80
2013,11,20,14,22,0.70
2013,11,20,14,23,0.20
2013,11,20,14,24,0.60
2013,11,20,14,25,1.70
2013,11,20,14,26,1.10
2013,11,20,14,27,1.30
2013,11,20,14,28,1.80
2013,11,20,14,29,2.90
2013,11,20,14,30,2.10
2013,11,20,14,31,0.30
2013,11,20,14,32,1.20
2013,11,20,14,33,1.30
2013,11,20,14,34,0.80
2013,11,20,14,35,1.60
2013,11,20,14,36,0.00
2013,11,20,14,37,1.60
2013,11,20,14,38,0.90
2013,11,20,14,39,2.30
2013,11,20,14,40,2.40
2013,11,20,14,41,2.60
2013,11,20,14,42,3.00
2013,11,20,14,43,2.10
2013,11,20,14,44,3.30
2013,11,20,14,45,1.90
2013,11,20,14,46,2.50
2013,11,20,14,47,3.00
2013,11,20,14,48,3.20
2013,11,20,14,49,2.20
2013,11,20,14,50,2.40
2013,11,20,14,51,3.60
2013,11,20,14,52,2.20
2013,11,20,14,53,2.10
2013,11,20,14,54,1.60
2013,11,20,14,55,1.20
2013,11,20,14,56,0.80
2013,11,20,14,57,1.50
2013,11,20,14,58,2.40
2013,11,20,14,59,2.20
2013,11,20,15,00,1.80
2013,11,20,15,01,2.20
2013,11,20,15,02,2.80
2013,11,20,15,03,1.70
2013,11,20,15,04,1.70
2013,11,20,15,05,2.40
2013,11,20,15,06,2.40
2013,11,20,15,07,2.30
2013,11,20,15,08,1.60
2013,11,20,15,09,1.00
2013,11,20,15,10,0.60
2013,11,20,15,11,0.70
2013,11,20,15,12,0.40
2013,11,20,15,13,1.10
2013,11,20,15,14,1.80
2013,11,20,15,15,1.30
2013,11,20,15,16,1.50
2013,11,20,15,17,0.90
2013,11,20,15,18,0.90
2013,11,20,15,19,1.30
2013,11,20,15,20,0.90
2013,11,20,15,21,1.00
2013,11,20,15,22,1.20
2013,11,20,15,23,1.20
2013,11,20,15,24,1.00
2013,11,20,15,25,1.30
2013,11,20,15,26,1.00
2013,11,20,15,27,0.90
2013,11,20,15,28,1.20
2013,11,20,15,29,1.50
2013,11,20,15,30,1.30
2013,11,20,15,31,1.10
2013,11,20,15,32,1.20
2013,11,20,15,33,1.50
2013,11,20,15,34,1.50
2013,11,20,15,35,0.60
2013,11,20,15,36,0.90
2013,11,20,15,37,0.30
2013,11,20,15,38,0.50
2013,11,20,15,39,0.60
2013,11,20,15,40,0.50
2013,11,20,15,41,0.70
2013,11,20,15,42,0.50
2013,11,20,15,43,0.80
2013,11,20,15,44,0.60
2013,11,20,15,45,0.60
2013,11,20,15,46,0.30
2013,11,20,15,47,0.00
2013,11,20,15,48,0.10
2013,11,20,15,49,0.00
2013,11,20,15,50,0.00
2013,11,20,15,51,0.00
2013,11,20,15,52,0.00
2013,11,20,15,53,0.00
2013,11,20,15,54,0.00
2013,11,20,15,55,0.40
2013,11,20,15,56,1.10
2013,11,20,15,57,1.10
2013,11,20,15,58,1.30
2013,11,20,15,59,1.50
2013,11,20,16,00,1.50
2013,11,20,16,01,1.40
2013,11,20,16,02,1.20
2013,11,20,16,03,1.30
2013,11,20,16,04,1.00
2013,11,20,16,05,0.80
2013,11,20,16,06,1.70
2013,11,20,16,07,2.00
2013,11,20,16,08,1.60
2013,11,20,16,09,1.60
2013,11,20,16,10,1.80
2013,11,20,16,11,1.80
2013,11,20,16,12,1.10
2013,11,20,16,13,1.00
2013,11,20,16,14,0.70
2013,11,20,16,15,0.00
2013,11,20,16,16,0.00
2013,11,20,16,17,0.00
2013,11,20,16,18,0.20
2013,11,20,16,19,0.30
2013,11,20,16,20,1.50
2013,11,20,16,21,1.10
2013,11,20,16,22,1.20
2013,11,20,16,23,1.10
2013,11,20,16,24,1.40
2013,11,20,16,25,0.90
2013,11,20,16,26,0.40
2013,11,20,16,27,1.30
2013,11,20,16,28,1.40
2013,11,20,16,29,1.30
2013,11,20,16,30,1.10
2013,11,20,16,31,0.90
2013,11,20,16,32,0.90
2013,11,20,16,33,0.80
2013,11,20,16,34,0.20
2013,11,20,16,35,0.80
2013,11,20,16,36,2.00
2013,11,20,16,37,1.20
2013,11,20,16,38,1.30
2013,11,20,16,39,1.80
2013,11,20,16,40,2.20
2013,11,20,16,41,1.10
2013,11,20,16,42,1.00
2013,11,20,16,43,1.30
2013,11,20,16,44,1.00
2013,11,20,16,45,0.80
2013,11,20,16,46,0.70
2013,11,20,16,47,0.80
2013,11,20,16,48,0.10
2013,11,20,16,49,0.50
2013,11,20,16,50,0.90
2013,11,20,16,51,0.50
2013,11,20,16,52,0.50
2013,11,20,16,53,1.20
2013,11,20,16,54,0.30
2013,11,20,16,55,0.70
2013,11,20,16,56,0.50
2013,11,20,16,57,0.90
2013,11,20,16,58,0.70
2013,11,20,16,59,0.70
2013,11,20,17,00,1.30
2013,11,20,17,01,1.50
2013,11,20,17,02,2.10
2013,11,20,17,03,2.50
2013,11,20,17,04,2.40
2013,11,20,17,05,1.90
2013,11,20,17,06,1.90
2013,11,20,17,07,1.90
2013,11,20,17,08,1.90
2013,11,20,17,09,0.50
2013,11,20,17,10,0.50
2013,11,20,17,11,1.10
2013,11,20,17,12,0.70
2013,11,20,17,13,1.60
2013,11,20,17,14,1.50
2013,11,20,17,15,1.40
2013,11,20,17,16,1.80
2013,11,20,17,17,1.80
2013,11,20,17,18,2.10
2013,11,20,17,19,2.30
2013,11,20,17,20,1.50
2013,11,20,17,21,1.60
2013,11,20,17,22,1.70
2013,11,20,17,23,1.20
2013,11,20,17,24,1.30
2013,11,20,17,25,1.30
2013,11,20,17,26,1.40
2013,11,20,17,27,1.20
2013,11,20,17,28,1.50
2013,11,20,17,29,1.60
2013,11,20,17,30,1.40
2013,11,20,17,31,1.30
2013,11,20,17,32,1.80
2013,11,20,17,33,2.00
2013,11,20,17,34,2.50
2013,11,20,17,35,3.00
2013,11,20,17,36,2.50
2013,11,20,17,37,1.90
2013,11,20,17,38,2.00
2013,11,20,17,39,2.10
2013,11,20,17,40,2.80
2013,11,20,17,41,2.90
2013,11,20,17,42,2.70
2013,11,20,17,43,2.40
2013,11,20,17,44,2.20
2013,11,20,17,45,2.60
2013,11,20,17,46,1.90
2013,11,20,17,47,2.70
2013,11,20,17,48,2.20
2013,11,20,17,49,2.00
2013,11,20,17,50,1.20
2013,11,20,17,51,1.70
2013,11,20,17,52,1.60
2013,11,20,17,53,1.80
2013,11,20,17,54,1.30
2013,11,20,17,55,1.60
2013,11,20,17,56,2.10
2013,11,20,17,57,2.50
2013,11,20,17,58,1.90
2013,11,20,17,59,1.50
2013,11,20,18,00,1.90
2013,11,20,18,01,2.80
2013,11,20,18,02,3.30
2013,11,20,18,03,3.40
2013,11,20,18,04,3.00
2013,11,20,18,05,2.20
2013,11,20,18,06,2.50
2013,11,20,18,07,2.70
2013,11,20,18,08,2.80
2013,11,20,18,09,2.80
2013,11,20,18,10,1.80
2013,11,20,18,11,2.20
2013,11,20,18,12,1.90
2013,11,20,18,13,2.50
2013,11,20,18,14,2.30
2013,11,20,18,15,2.50
2013,11,20,18,16,2.90
2013,11,20,18,17,2.90
2013,11,20,18,18,3.30
2013,11,20,18,19,3.30
2013,11,20,18,20,3.10
2013,11,20,18,21,2.80
2013,11,20,18,22,2.70
2013,11,20,18,23,2.80
2013,11,20,18,24,2.70
2013,11,20,18,25,3.20
2013,11,20,18,26,3.00
2013,11,20,18,27,2.90
2013,11,20,18,28,3.00
2013,11,20,18,29,3.60
2013,11,20,18,30,3.60
2013,11,20,18,31,3.00
2013,11,20,18,32,2.70
2013,11,20,18,33,2.30
2013,11,20,18,34,2.30
2013,11,20,18,35,2.40
2013,11,20,18,36,2.30
2013,11,20,18,37,2.20
2013,11,20,18,38,2.20
2013,11,20,18,39,2.60
2013,11,20,18,40,1.60
2013,11,20,18,41,1.60
2013,11,20,18,42,2.50
2013,11,20,18,43,2.40
2013,11,20,18,44,1.90
2013,11,20,18,45,2.10
2013,11,20,18,46,1.10
2013,11,20,18,47,1.80
2013,11,20,18,48,1.50
2013,11,20,18,49,0.50
2013,11,20,18,50,1.20
2013,11,20,18,51,1.20
2013,11,20,18,52,2.00
2013,11,20,18,53,1.20
2013,11,20,18,54,2.00
2013,11,20,18,55,1.80
2013,11,20,18,56,0.30
2013,11,20,18,57,1.10
2013,11,20,18,58,1.20
2013,11,20,18,59,1.00
2013,11,20,19,00,1.40
2013,11,20,19,01,1.50
2013,11,20,19,02,1.30
2013,11,20,19,03,1.70
2013,11,20,19,04,1.50
2013,11,20,19,05,1.70
2013,11,20,19,06,1.90
2013,11,20,19,07,2.30
2013,11,20,19,08,2.60
2013,11,20,19,09,1.80
2013,11,20,19,10,1.90
2013,11,20,19,11,2.00
2013,11,20,19,12,1.90
2013,11,20,19,13,2.00
2013,11,20,19,14,2.30
2013,11,20,19,15,2.20
2013,11,20,19,16,2.30
2013,11,20,19,17,1.40
2013,11,20,19,18,1.70
2013,11,20,19,19,1.40
2013,11,20,19,20,2.10
2013,11,20,19,21,2.50
2013,11,20,19,22,1.80
2013,11,20,19,23,1.60
2013,11,20,19,24,1.70
2013,11,20,19,25,1.80
2013,11,20,19,26,2.50
2013,11,20,19,27,2.50
2013,11,20,19,28,1.60
2013,11,20,19,29,1.20
2013,11,20,19,30,1.50
2013,11,20,19,31,3.40
2013,11,20,19,32,2.40
2013,11,20,19,33,1.70
2013,11,20,19,34,1.60
2013,11,20,19,35,2.10
2013,11,20,19,36,2.40
2013,11,20,19,37,4.30
2013,11,20,19,38,2.40
2013,11,20,19,39,2.00
2013,11,20,19,40,1.70
2013,11,20,19,41,1.20
2013,11,20,19,42,2.20
2013,11,20,19,43,2.10
2013,11,20,19,44,1.30
2013,11,20,19,45,2.10
2013,11,20,19,46,1.80
2013,11,20,19,47,2.20
2013,11,20,19,48,1.50
2013,11,20,19,49,3.30
2013,11,20,19,50,1.60
2013,11,20,19,51,1.90
2013,11,20,19,52,1.80
2013,11,20,19,53,1.90
2013,11,20,19,54,2.60
2013,11,20,19,55,2.00
2013,11,20,19,56,1.50
2013,11,20,19,57,2.80
2013,11,20,19,58,2.00
2013,11,20,19,59,2.80
2013,11,20,20,00,2.10
2013,11,20,20,01,1.90
2013,11,20,20,02,2.70
2013,11,20,20,03,1.70
2013,11,20,20,04,2.30
2013,11,20,20,05,2.70
2013,11,20,20,06,4.60
2013,11,20,20,07,3.40
2013,11,20,20,08,3.90
2013,11,20,20,09,3.00
2013,11,20,20,10,3.70
2013,11,20,20,11,3.80
2013,11,20,20,12,3.00
2013,11,20,20,13,3.10
2013,11,20,20,14,3.30
2013,11,20,20,15,3.40
2013,11,20,20,16,3.10
2013,11,20,20,17,3.40
2013,11,20,20,18,3.30
2013,11,20,20,19,3.30
2013,11,20,20,20,3.30
2013,11,20,20,21,3.30
2013,11,20,20,22,3.40
2013,11,20,20,23,2.80
2013,11,20,20,24,3.50
2013,11,20,20,25,3.20
2013,11,20,20,26,2.90
2013,11,20,20,27,3.00
2013,11,20,20,28,3.40
2013,11,20,20,29,3.50
2013,11,20,20,30,3.70
2013,11,20,20,31,3.20
2013,11,20,20,32,3.20
2013,11,20,20,33,3.40
2013,11,20,20,34,3.50
2013,11,20,20,35,3.70
2013,11,20,20,36,3.50
2013,11,20,20,37,3.50
2013,11,20,20,38,3.60
2013,11,20,20,39,3.40
2013,11,20,20,40,3.80
2013,11,20,20,41,4.60
2013,11,20,20,42,3.10
2013,11,20,20,43,3.20
2013,11,20,20,44,3.00
2013,11,20,20,45,3.00
2013,11,20,20,46,3.30
2013,11,20,20,47,3.00
2013,11,20,20,48,3.40
2013,11,20,20,49,4.00
2013,11,20,20,50,4.60
2013,11,20,20,51,3.70
2013,11,20,20,52,2.20
2013,11,20,20,53,2.80
2013,11,20,20,54,2.50
2013,11,20,20,55,1.80
2013,11,20,20,56,2.60
2013,11,20,20,57,2.50
2013,11,20,20,58,2.70
2013,11,20,20,59,2.20
2013,11,20,21,00,3.60
2013,11,20,21,01,2.10
2013,11,20,21,02,2.10
2013,11,20,21,03,3.00
2013,11,20,21,04,2.70
2013,11,20,21,05,2.60
2013,11,20,21,06,3.00
2013,11,20,21,07,2.10
2013,11,20,21,08,2.30
2013,11,20,21,09,2.90
2013,11,20,21,10,2.50
2013,11,20,21,11,2.30
2013,11,20,21,12,2.40
2013,11,20,21,13,2.60
2013,11,20,21,14,2.20
2013,11,20,21,15,2.90
2013,11,20,21,16,2.30
2013,11,20,21,17,2.50
2013,11,20,21,18,1.80
2013,11,20,21,19,2.50
2013,11,20,21,20,2.40
2013,11,20,21,21,2.30
2013,11,20,21,22,2.00
2013,11,20,21,23,2.40
2013,11,20,21,24,2.60
2013,11,20,21,25,2.50
2013,11,20,21,26,3.00
2013,11,20,21,27,3.10
2013,11,20,21,28,2.90
2013,11,20,21,29,2.90
2013,11,20,21,30,3.00
2013,11,20,21,31,2.90
2013,11,20,21,32,3.10
2013,11,20,21,33,3.00
2013,11,20,21,34,2.90
2013,11,20,21,35,2.70
2013,11,20,21,36,2.90
2013,11,20,21,37,2.80
2013,11,20,21,38,3.20
2013,11,20,21,39,3.10
2013,11,20,21,40,2.70
2013,11,20,21,41,2.40
2013,11,20,21,42,2.40
2013,11,20,21,43,2.20
2013,11,20,21,44,2.70
2013,11,20,21,45,1.80
2013,11,20,21,46,2.90
2013,11,20,21,47,2.80
2013,11,20,21,48,3.30
2013,11,20,21,49,2.20
2013,11,20,21,50,1.40
2013,11,20,21,51,1.20
2013,11,20,21,52,1.90
2013,11,20,21,53,3.10
2013,11,20,21,54,2.80
2013,11,20,21,55,2.60
2013,11,20,21,56,2.20
2013,11,20,21,57,2.30
2013,11,20,21,58,2.20
2013,11,20,21,59,2.10
2013,11,20,22,00,2.00
2013,11,20,22,01,2.00
2013,11,20,22,02,2.20
2013,11,20,22,03,2.30
2013,11,20,22,04,2.40
2013,11,20,22,05,2.90
2013,11,20,22,06,3.10
2013,11,20,22,07,2.90
2013,11,20,22,08,2.90
2013,11,20,22,09,2.70
2013,11,20,22,10,2.80
2013,11,20,22,11,3.20
2013,11,20,22,12,3.30
2013,11,20,22,13,3.00
2013,11,20,22,14,3.00
2013,11,20,22,15,2.50
2013,11,20,22,16,2.90
2013,11,20,22,17,1.90
2013,11,20,22,18,2.40
2013,11,20,22,19,2.60
2013,11,20,22,20,3.30
2013,11,20,22,21,2.00
2013,11,20,22,22,1.70
2013,11,20,22,23,1.80
2013,11,20,22,24,1.80
2013,11,20,22,25,2.80
2013,11,20,22,26,1.90
2013,11,20,22,27,1.70
2013,11,20,22,28,1.50
2013,11,20,22,29,1.00
2013,11,20,22,30,0.50
2013,11,20,22,31,1.00
2013,11,20,22,32,1.10
2013,11,20,22,33,3.40
2013,11,20,22,34,2.30
2013,11,20,22,35,1.80
2013,11,20,22,36,2.80
2013,11,20,22,37,2.80
2013,11,20,22,38,1.90
2013,11,20,22,39,1.50
2013,11,20,22,40,1.40
2013,11,20,22,41,1.60
2013,11,20,22,42,1.50
2013,11,20,22,43,0.20
2013,11,20,22,44,1.50
2013,11,20,22,45,1.40
2013,11,20,22,46,0.90
2013,11,20,22,47,0.60
2013,11,20,22,48,1.10
2013,11,20,22,49,0.60
2013,11,20,22,50,1.10
2013,11,20,22,51,0.70
2013,11,20,22,52,0.60
2013,11,20,22,53,0.10
2013,11,20,22,54,0.90
2013,11,20,22,55,1.80
2013,11,20,22,56,1.30
2013,11,20,22,57,1.70
2013,11,20,22,58,1.80
2013,11,20,22,59,1.80
2013,11,20,23,00,2.10
2013,11,20,23,01,2.10
2013,11,20,23,02,2.20
2013,11,20,23,03,2.30
2013,11,20,23,04,1.40
2013,11,20,23,05,1.40
2013,11,20,23,06,0.70
2013,11,20,23,07,0.40
2013,11,20,23,08,1.00
2013,11,20,23,09,0.30
2013,11,20,23,10,0.60
2013,11,20,23,11,0.50
2013,11,20,23,12,0.80
2013,11,20,23,13,0.50
2013,11,20,23,14,1.90
2013,11,20,23,15,1.80
2013,11,20,23,16,1.20
2013,11,20,23,17,1.20
2013,11,20,23,18,2.10
2013,11,20,23,19,1.40
2013,11,20,23,20,1.90
2013,11,20,23,21,0.80
2013,11,20,23,22,1.20
2013,11,20,23,23,1.20
2013,11,20,23,24,1.60
2013,11,20,23,25,1.10
2013,11,20,23,26,1.20
2013,11,20,23,27,1.20
2013,11,20,23,28,1.40
2013,11,20,23,29,2.10
2013,11,20,23,30,1.10
2013,11,20,23,31,2.10
2013,11,20,23,32,1.10
2013,11,20,23,33,1.30
2013,11,20,23,34,2.70
2013,11,20,23,35,1.40
2013,11,20,23,36,1.20
2013,11,20,23,37,1.80
2013,11,20,23,38,2.30
2013,11,20,23,39,2.20
2013,11,20,23,40,1.60
2013,11,20,23,41,2.30
2013,11,20,23,42,1.50
2013,11,20,23,43,1.30
2013,11,20,23,44,1.60
2013,11,20,23,45,0.70
2013,11,20,23,46,0.90
2013,11,20,23,47,0.90
2013,11,20,23,48,0.90
2013,11,20,23,49,1.20
2013,11,20,23,50,1.50
2013,11,20,23,51,2.20
2013,11,20,23,52,2.30
2013,11,20,23,53,1.90
2013,11,20,23,54,1.60
2013,11,20,23,55,2.60
2013,11,20,23,56,2.60
2013,11,20,23,57,2.40
2013,11,20,23,58,2.80
2013,11,20,23,59,2.50
